1525824573;180.0;0.0;0.0;0.0;26.7;26.7;1007.0;0.0;6.0;25.6
1525825173;180.0;0.0;0.0;0.0;26.7;27.0;1007.0;0.0;6.2;25.7
1525825773;180.0;0.0;0.0;0.0;26.8;27.2;1007.0;0.0;6.3;25.8
1525826373;180.0;0.0;0.0;0.0;26.8;27.4;1006.8;0.0;6.4;25.8
1525826973;180.0;0.0;0.0;0.0;26.8;27.7;1006.6;0.0;6.6;25.9
1525827573;180.0;0.0;0.0;0.0;26.8;27.9;1006.5;0.0;6.7;25.9
1525828173;180.0;0.0;0.0;0.0;26.8;28.1;1006.5;0.0;6.8;25.9
1525828773;180.0;0.0;0.0;0.0;26.8;28.3;1006.5;0.0;6.9;26.0
1525829373;180.0;0.0;0.0;0.0;26.8;28.4;1006.5;0.0;7.0;26.0
1525829974;180.0;0.0;0.0;0.0;26.8;28.6;1006.5;0.0;7.0;26.0
1525830574;180.0;0.0;0.0;0.0;26.8;28.7;1006.4;0.0;7.1;26.0
1525831174;180.0;0.0;0.0;0.0;26.7;28.9;1006.1;0.0;7.1;25.9
1525831774;180.0;0.0;0.0;0.0;26.7;29.0;1006.0;0.0;7.2;25.9
1525832374;180.0;0.0;0.0;0.0;26.7;29.2;1005.9;0.0;7.2;25.9
1525832974;180.0;0.0;0.0;0.0;26.7;29.2;1005.8;0.0;7.3;25.9
1525833574;180.0;0.0;0.0;0.0;26.7;29.3;1005.8;0.0;7.3;26.0
1525834174;180.0;0.0;0.0;0.0;26.6;29.5;1005.8;0.0;7.3;25.9
1525834774;180.0;0.0;0.0;0.0;26.6;29.6;1005.8;0.0;7.4;25.9
1525835375;180.0;0.0;0.0;0.0;26.5;29.8;1005.8;0.0;7.4;25.8
1525835975;180.0;0.0;0.0;0.0;26.5;29.9;1005.9;0.0;7.4;25.8
1525836575;180.0;0.0;0.0;0.0;26.5;29.9;1006.0;0.0;7.4;25.8
1525837175;180.0;0.0;0.0;0.0;26.5;30.0;1006.1;0.0;7.5;25.8
1525837775;180.0;0.0;0.0;0.0;26.4;30.1;1006.2;0.0;7.5;25.7
1525838375;180.0;0.0;0.0;0.0;26.4;30.2;1006.3;0.0;7.6;25.7
1525838975;180.0;0.0;0.0;0.0;26.4;30.2;1006.3;0.0;7.6;25.7
1525839575;180.0;0.0;0.0;0.0;26.5;30.3;1006.3;0.0;7.6;25.8
1525840175;180.0;0.0;0.0;0.0;26.5;30.2;1006.2;0.0;7.7;25.8
1525840775;180.0;0.0;0.0;0.0;26.6;30.1;1006.1;0.0;7.7;25.9
1525841375;180.0;0.0;0.0;0.0;26.7;29.9;1005.9;0.0;7.8;26.0
1525841975;180.0;0.0;0.0;0.0;26.9;29.7;1005.7;0.0;7.8;26.3
1525842576;180.0;0.0;0.0;0.0;27.0;29.4;1005.4;0.0;7.9;26.3
1525843176;180.0;0.0;0.0;0.0;27.4;28.6;1005.3;0.0;8.0;26.7
1525843776;180.0;0.0;0.0;0.0;27.9;28.0;1005.2;0.0;8.0;27.2
1525844376;180.0;0.0;0.0;0.0;28.3;28.1;1005.1;0.0;8.1;27.7
1525844976;180.0;0.0;0.0;0.0;28.2;28.7;1005.1;0.0;8.1;27.7
1525845576;180.0;0.0;0.0;0.0;27.9;29.1;1005.1;0.0;8.2;27.4
1525846176;180.0;0.0;0.0;0.0;27.8;29.0;1005.0;0.0;8.3;27.3
1525846776;180.0;0.0;0.0;0.0;28.0;28.9;1005.0;0.0;8.4;27.5
1525847376;180.0;0.0;0.0;0.0;28.1;28.7;1005.0;0.0;8.4;27.6
1525847976;180.0;0.0;0.0;0.0;28.3;28.5;1005.0;0.0;8.5;27.8
1525848576;180.0;0.0;0.0;0.0;28.6;28.2;1005.4;0.0;8.5;28.1
1525849177;180.0;0.0;0.0;0.0;28.8;27.9;1005.8;0.0;8.6;28.3
1525849777;180.0;0.0;0.0;0.0;28.9;28.9;1006.3;0.0;8.6;28.6
1525850377;180.0;0.0;0.0;0.0;28.2;29.4;1006.3;0.0;8.0;27.8
1525850977;180.0;0.0;0.0;0.0;27.3;29.4;1005.8;0.0;7.3;26.7
1525851577;180.0;0.0;0.0;0.0;26.5;29.7;1005.7;0.0;7.0;25.8
1525852177;180.0;0.0;0.0;0.0;26.0;29.6;1005.9;0.0;6.7;25.2
1525852777;180.0;0.0;0.0;0.0;25.7;30.2;1005.7;0.0;6.8;24.9
1525853889;180.0;0.0;0.0;0.0;25.4;30.8;1004.8;0.0;6.9;24.6
1525854489;180.0;0.0;0.0;0.0;25.3;30.2;1005.0;0.0;6.5;24.4
1525855089;180.0;0.0;0.0;0.0;25.1;30.4;1005.4;0.0;6.4;24.2
1525855689;180.0;0.0;0.0;0.0;24.9;30.7;1005.5;0.0;6.4;24.0
1525856289;180.0;0.0;0.0;0.0;24.8;32.2;1005.5;0.0;7.1;24.0
1525857566;180.0;0.0;0.0;0.0;25.6;31.4;1005.4;0.0;8.1;24.9
1525858166;180.0;0.0;0.0;0.0;26.4;30.4;1005.4;0.0;8.2;25.7
1525858766;180.0;0.0;0.0;0.0;27.2;29.8;1005.7;0.0;8.3;26.6
1525859366;180.0;0.0;0.0;0.0;27.7;29.3;1005.6;0.0;8.4;27.2
1525859966;180.0;0.0;0.0;0.0;28.0;29.1;1005.3;0.0;8.6;27.5
1525861239;180.0;0.0;0.0;0.0;28.5;28.8;1005.2;0.0;8.8;28.1
1525861839;180.0;0.0;0.0;0.0;28.6;28.8;1005.6;0.0;8.8;28.2
1525862440;180.0;0.0;0.0;0.0;28.8;28.7;1006.0;0.0;8.9;28.4
1525863040;180.0;0.0;0.0;0.0;28.9;28.6;1006.2;0.0;8.9;28.6
1525863640;180.0;0.0;0.0;0.0;28.9;28.8;1006.2;0.0;8.8;28.6
1525864916;180.0;0.0;0.0;0.0;28.5;29.2;1005.8;0.0;9.0;28.1
1525865516;180.0;0.0;0.0;0.0;28.6;29.0;1005.6;0.0;8.9;28.2
1525866116;180.0;0.0;0.0;0.0;28.7;28.9;1005.6;0.0;8.9;28.3
1525866716;180.0;0.0;0.0;0.0;28.8;28.6;1005.4;0.0;8.9;28.4
1525867316;180.0;0.0;0.0;0.0;28.9;28.4;1005.1;0.0;8.8;28.5
1525868591;180.0;0.0;0.0;0.0;29.0;28.1;1005.0;0.0;8.8;28.6
1525869192;180.0;0.0;0.0;0.0;29.0;28.3;1004.9;0.0;8.8;28.6
1525869792;180.0;0.0;0.0;0.0;29.0;28.4;1004.6;0.0;8.9;28.6
1525870392;180.0;0.0;0.0;0.0;29.0;28.5;1004.3;0.0;8.9;28.7
1525870993;180.0;0.0;0.0;0.0;29.0;28.4;1004.2;0.0;8.9;28.6
1525872268;180.0;0.0;0.0;0.0;29.0;28.6;1004.0;0.0;9.0;28.7
1525872868;180.0;0.0;0.0;0.0;29.0;29.1;1004.0;0.0;9.2;28.7
1525873468;180.0;0.0;0.0;0.0;28.9;29.4;1004.0;0.0;9.3;28.7
1525874069;180.0;0.0;0.0;0.0;28.9;29.2;1004.0;0.0;9.2;28.6
1525874669;180.0;0.0;0.0;0.0;28.9;29.0;1004.3;0.0;9.1;28.6
1525875943;180.0;0.0;0.0;0.0;28.8;29.5;1004.2;0.0;9.2;28.6
1525876543;180.0;0.0;0.0;0.0;28.8;29.6;1004.1;0.0;9.2;28.6
1525877143;180.0;0.0;0.0;0.0;28.7;29.8;1004.2;0.0;9.3;28.5
1525877743;180.0;0.0;0.0;0.0;28.7;30.0;1004.2;0.0;9.4;28.5
1525878343;180.0;0.0;0.0;0.0;28.7;30.1;1004.1;0.0;9.4;28.5
1525879618;180.0;0.0;0.0;0.0;28.7;30.5;1003.9;0.0;9.6;28.6
1525880218;180.0;0.0;0.0;0.0;28.6;30.7;1004.1;0.0;9.6;28.5
1525880818;180.0;0.0;0.0;0.0;28.6;30.8;1004.1;0.0;9.7;28.5
1525881418;180.0;0.0;0.0;0.0;28.6;31.0;1004.0;0.0;9.8;28.5
1525882019;180.0;0.0;0.0;0.0;28.6;31.1;1003.9;0.0;9.8;28.5
1525883293;180.0;0.0;0.0;0.0;28.5;31.3;1003.8;0.0;9.9;28.4
1525883894;180.0;0.0;0.0;0.0;28.5;31.3;1003.8;0.0;9.8;28.4
1525884494;180.0;0.0;0.0;0.0;28.5;31.3;1003.8;0.0;9.9;28.4
1525885094;180.0;0.0;0.0;0.0;28.5;31.3;1003.7;0.0;9.8;28.4
1525885694;180.0;0.0;0.0;0.0;28.5;31.3;1003.6;0.0;9.8;28.4
1525887169;180.0;0.0;0.0;0.0;28.2;32.0;1003.7;0.0;9.8;28.1
1525887770;180.0;0.0;0.0;0.0;28.1;31.6;1003.6;0.0;9.6;28.0
1525888370;180.0;0.0;0.0;0.0;28.0;31.7;1003.6;0.0;9.6;27.9
1525888970;180.0;0.0;0.0;0.0;27.9;32.7;1003.7;0.0;10.0;27.9
1525889570;180.0;0.0;0.0;0.0;27.9;32.7;1004.0;0.0;10.0;27.9
1525890170;180.0;0.0;0.0;0.0;27.6;33.0;1004.0;0.0;9.2;27.5
1525890771;180.0;0.0;0.0;0.0;26.7;34.1;1003.7;0.0;8.9;26.5
1525891371;180.0;0.0;0.0;0.0;25.9;32.9;1003.3;0.0;8.0;25.4
1525891971;180.0;0.0;0.0;0.0;25.4;33.2;1003.3;0.0;7.7;24.8
1525892571;180.0;0.0;0.0;0.0;24.9;33.3;1003.5;0.0;7.3;24.2
1525893047;180.0;0.0;0.0;0.0;24.5;31.8;1003.3;0.0;6.3;23.6
1525893648;180.0;0.0;0.0;0.0;24.1;31.2;1002.8;0.0;5.7;23.0
1525894248;180.0;0.0;0.0;0.0;23.7;31.0;1002.8;0.0;5.3;22.6
1525894848;180.0;0.0;0.0;0.0;23.2;31.4;1003.1;0.0;5.1;22.0
1525895449;180.0;0.0;0.0;0.0;23.0;33.9;1003.6;0.0;6.1;22.0
1525896049;180.0;0.0;0.0;0.0;22.9;34.9;1004.0;0.0;6.6;22.0
1525896649;180.0;0.0;0.0;0.0;22.9;35.5;1004.2;0.0;6.7;22.0
1525897249;180.0;0.0;0.0;0.0;22.8;36.6;1004.3;0.0;7.4;22.0
1525897849;180.0;0.0;0.0;0.0;23.3;37.5;1004.1;0.0;8.6;22.7
1525898449;180.0;0.0;0.0;0.0;24.1;37.0;1003.8;0.0;9.1;23.7
1525899049;180.0;0.0;0.0;0.0;24.7;36.9;1003.2;0.0;9.3;24.4
1525899649;180.0;0.0;0.0;0.0;25.1;37.0;1003.2;0.0;9.5;24.9
1525900249;180.0;0.0;0.0;0.0;25.3;37.0;1003.7;0.0;9.7;25.1
1525900849;180.0;0.0;0.0;0.0;25.5;37.1;1004.2;0.0;9.8;25.4
1525901449;180.0;0.0;0.0;0.0;25.6;37.1;1004.4;0.0;9.9;25.5
1525902049;180.0;0.0;0.0;0.0;25.7;37.2;1004.6;0.0;10.0;25.7
1525902650;180.0;0.0;0.0;0.0;25.7;37.3;1004.7;0.0;10.1;25.7
1525903250;180.0;0.0;0.0;0.0;25.8;37.3;1004.7;0.0;10.2;25.8
1525903850;180.0;0.0;0.0;0.0;25.8;37.4;1004.5;0.0;10.2;25.8
1525904450;180.0;0.0;0.0;0.0;25.8;37.3;1004.4;0.0;10.2;25.8
1525905050;180.0;0.0;0.0;0.0;25.8;37.3;1004.3;0.0;10.2;25.8
1525905650;180.0;0.0;0.0;0.0;25.8;37.3;1004.2;0.0;10.2;25.8
1525906250;180.0;0.0;0.0;0.0;25.9;37.3;1004.1;0.0;10.2;25.9
1525906850;180.0;0.0;0.0;0.0;25.9;37.2;1004.0;0.0;10.2;25.9
1525907450;180.0;0.0;0.0;0.0;25.9;37.1;1003.9;0.0;10.2;25.9
1525908050;180.0;0.0;0.0;0.0;26.0;37.2;1003.9;0.0;10.2;26.0
1525908650;180.0;0.0;0.0;0.0;26.0;37.2;1003.8;0.0;10.2;26.0
1525909251;180.0;0.0;0.0;0.0;26.0;37.1;1003.7;0.0;10.2;26.0
1525909851;180.0;0.0;0.0;0.0;26.0;37.1;1003.7;0.0;10.2;26.0
